[[{"header":{"parameterUnit":"m.s-1","parameterCategory":2,"la1":30.2992,"la2":30.254,"lo1":-89.0895,"lo2":-89.0443,"dy":0.0025,"dx":0.0025,"nx":19,"ny":19,"refTime":"2026-05-01T21:00:00:Z","depth":"0","parameterNumber":2,"parameterNumberName":"U-component_of_CURRENTS"},"data":[0,0,0,-0.262,-0.2622,-0.2692,-0.2692,-0.2747,-0.2748,0,0,0,0,0,0,0,0,0,0,0,-0.2581,-0.2581,-0.262,-0.2622,-0.2692,-0.2692,-0.2747,-0.2748,0,0,0,0,0,0,0,0,0,0,0,-0.2581,-0.2581,-0.2582,-0.2622,-0.2692,-0.2692,-0.2747,-0.27,0,0,0,0,0,0,0,0,0,0,-0.2635,-0.2599,-0.2581,-0.2582,-0.2623,-0.2692,-0.2692,-0.2698,-0.2703,-0.2709,0,-0.2718,0,-0.2745,-0.2752,-0.2752,0,0,0,-0.2612,-0.2595,-0.2628,-0.2582,-0.2623,-0.2692,-0.2658,-0.2701,-0.2707,-0.2715,-0.2719,-0.2722,-0.2746,-0.2752,-0.2752,-0.2847,-0.2847,0,0,-0.2608,-0.2582,-0.2624,-0.2631,-0.264,-0.2656,-0.266,-0.2705,-0.2701,-0.2719,-0.2724,-0.2747,-0.2752,-0.2753,-0.2846,-0.2847,0,0,0,-0.2604,-0.2578,-0.261,-0.2628,-0.265,-0.2658,-0.2663,-0.2698,-0.2713,-0.2725,-0.2747,-0.2753,-0.2753,-0.2845,-0.2846,-0.2873,0,0,0,-0.2601,-0.2577,-0.2608,-0.2591,-0.2649,-0.2679,-0.2655,-0.2709,-0.2716,-0.2747,-0.2753,-0.2754,-0.2845,-0.2846,-0.2871,-0.2871,0,0,0,-0.2578,-0.2575,-0.2585,-0.259,-0.2629,-0.2679,-0.2695,-0.2711,-0.273,-0.2752,-0.2754,-0.2844,-0.2846,-0.2869,-0.2869,-0.2861,0,0,0,-0.2546,-0.2573,-0.2584,-0.263,-0.2628,-0.2715,-0.2695,-0.2747,-0.277,-0.2753,-0.2845,-0.2846,-0.2869,-0.2867,-0.286,-0.2706,-0.2699,0,0,-0.2569,-0.2574,-0.2608,-0.2622,-0.2705,-0.2704,-0.2783,-0.2795,-0.2792,-0.2824,-0.2827,-0.2872,-0.2868,-0.2861,-0.279,-0.278,0,0,0,-0.2611,-0.2624,-0.2656,-0.2702,-0.2765,-0.2807,-0.2831,-0.284,-0.2865,-0.2815,-0.2894,-0.2891,-0.2885,-0.2791,-0.2784,-0.2682,-0.2853,-0.2853,-0.2853,-0.257,-0.2631,-0.2685,-0.2758,-0.2813,-0.288,-0.2909,-0.2923,-0.2917,-0.2933,-0.293,-0.2965,-0.2868,-0.286,-0.2759,-0.2956,-0.2956,-0.2956,-0.2956,-0.2585,-0.2605,-0.269,-0.2759,-0.2829,-0.2888,-0.2966,-0.297,-0.2994,-0.2983,-0.2976,-0.2845,-0.2853,-0.2748,-0.2958,-0.2958,-0.2958,-0.2957,-0.2957,-0.253,-0.2546,-0.2604,-0.2693,-0.2777,-0.2869,-0.2927,-0.2983,-0.3,-0.3014,-0.2882,-0.2879,-0.2768,-0.3,-0.3,-0.3,-0.3,-0.3,-0.3,-0.2423,-0.2491,-0.2511,-0.2622,-0.2665,-0.2757,-0.289,-0.2924,-0.2916,-0.2893,-0.2891,-0.2761,-0.2978,-0.2955,-0.3,-0.3,-0.3,-0.3,-0.3,-0.2318,-0.2347,-0.2373,-0.2411,-0.2525,-0.2537,-0.2721,-0.2744,-0.2794,-0.2748,-0.2613,-0.282,-0.2787,-0.2791,-0.2763,-0.2756,-0.2756,-0.2756,-0.2756,-0.2205,-0.2239,-0.2221,-0.2248,-0.2317,-0.242,-0.2367,-0.2423,-0.2436,-0.2378,-0.246,-0.2408,-0.2422,-0.2367,-0.238,-0.2344,-0.2231,-0.223,-0.223,-0.2104,-0.2128,-0.206,-0.212,-0.2197,-0.2242,-0.2108,-0.2065,-0.2126,-0.2206,-0.2354,-0.2376,-0.2302,-0.2333,-0.2249,-0.2276,-0.2219,0,0]},{"header":{"parameterUnit":"m.s-1","parameterCategory":2,"la1":30.2992,"la2":30.254,"lo1":-89.0895,"lo2":-89.0443,"dy":0.0025,"dx":0.0025,"nx":19,"ny":19,"refTime":"2026-05-01T21:00:00:Z","depth":"0","parameterNumber":3,"parameterNumberName":"V-component_of_CURRENTS"},"data":[0,0,0,-0.0424,-0.0423,-0.0345,-0.0344,-0.0199,-0.0198,0,0,0,0,0,0,0,0,0,0,0,-0.045,-0.045,-0.0424,-0.0423,-0.0345,-0.0344,-0.0199,-0.0198,0,0,0,0,0,0,0,0,0,0,0,-0.045,-0.045,-0.045,-0.0423,-0.0345,-0.0344,-0.02,-0.0266,0,0,0,0,0,0,0,0,0,0,-0.0346,-0.0386,-0.045,-0.045,-0.0422,-0.0345,-0.0344,-0.0269,-0.0262,-0.0227,0,-0.0226,0,-0.0215,-0.0189,-0.0188,0,0,0,-0.0406,-0.0393,-0.0371,-0.045,-0.0422,-0.0345,-0.0375,-0.0265,-0.0257,-0.0217,-0.0224,-0.0219,-0.0212,-0.0188,-0.0187,-0.0114,-0.0114,0,0,-0.0411,-0.043,-0.0377,-0.0366,-0.0414,-0.0378,-0.0373,-0.026,-0.0256,-0.0223,-0.0215,-0.021,-0.0187,-0.0186,-0.0114,-0.0114,0,0,0,-0.0434,-0.0434,-0.0415,-0.0372,-0.0365,-0.0376,-0.037,-0.0261,-0.0255,-0.0214,-0.0208,-0.0186,-0.0184,-0.0114,-0.0114,-0.0218,0,0,0,-0.0436,-0.0449,-0.0418,-0.0428,-0.0368,-0.0319,-0.0373,-0.0263,-0.025,-0.0209,-0.0186,-0.0183,-0.0113,-0.0114,-0.0214,-0.0269,0,0,0,-0.0452,-0.045,-0.0445,-0.0429,-0.0403,-0.0321,-0.0308,-0.026,-0.0247,-0.0188,-0.0183,-0.0113,-0.0114,-0.0211,-0.0263,-0.0235,0,0,0,-0.0468,-0.0502,-0.0446,-0.0482,-0.0404,-0.0394,-0.0309,-0.0283,-0.0243,-0.0185,-0.0113,-0.0114,-0.0211,-0.0259,-0.0232,-0.014,-0.0144,0,0,-0.0529,-0.0509,-0.0534,-0.0483,-0.0512,-0.0403,-0.0407,-0.0313,-0.0234,-0.0143,-0.0142,-0.0216,-0.0263,-0.0234,-0.0171,-0.0174,0,0,0,-0.0567,-0.0587,-0.0585,-0.0584,-0.0543,-0.0495,-0.04,-0.0342,-0.0258,-0.0214,-0.0197,-0.0223,-0.0202,-0.0141,-0.0143,0.0113,-0.0116,-0.0116,-0.0116,-0.0669,-0.0656,-0.0701,-0.0677,-0.0654,-0.0554,-0.0501,-0.0396,-0.0318,-0.0294,-0.0294,-0.0329,-0.0266,-0.0266,-0.0005,-0.0272,-0.0273,-0.0273,-0.0273,-0.0786,-0.0821,-0.0789,-0.0828,-0.0756,-0.0731,-0.059,-0.0515,-0.0413,-0.0362,-0.0334,-0.0238,-0.0275,0.0006,-0.028,-0.0278,-0.0278,-0.0277,-0.0277,-0.0864,-0.0883,-0.0894,-0.0933,-0.0921,-0.0833,-0.0784,-0.0656,-0.0514,-0.0495,-0.035,-0.0347,-0.0106,-0.046,-0.046,-0.046,-0.046,-0.046,-0.046,-0.0939,-0.0955,-0.1018,-0.1041,-0.106,-0.1034,-0.0886,-0.0786,-0.0577,-0.0451,-0.0449,-0.0076,-0.0384,-0.0383,-0.0463,-0.0462,-0.0462,-0.0462,-0.0462,-0.1045,-0.1038,-0.1145,-0.1184,-0.1225,-0.1215,-0.1065,-0.0785,-0.064,-0.051,-0.0041,-0.0388,-0.033,-0.0326,-0.0322,-0.038,-0.038,-0.038,-0.038,-0.1101,-0.1112,-0.1245,-0.1325,-0.1374,-0.13,-0.1132,-0.0788,-0.0241,0.0061,0.0136,0.0223,0.0208,0.0303,0.0293,0.0313,0.0416,0.0418,0.0419,-0.1161,-0.12,-0.1298,-0.1376,-0.1439,-0.1373,-0.1172,-0.0709,0.0111,0.0475,0.0474,0.044,0.0589,0.0545,0.0711,0.0677,0.0714,0,0]}],[{"header":{"parameterUnit":"m.s-1","parameterCategory":2,"la1":30.2992,"la2":30.254,"lo1":-89.0895,"lo2":-89.0443,"dy":0.0025,"dx":0.0025,"nx":19,"ny":19,"refTime":"2026-05-01T21:00:00:Z","depth":"2","parameterNumber":2,"parameterNumberName":"U-component_of_CURRENTS"},"data":[0,0,0,-0.2367,-0.2369,-0.245,-0.2451,-0.2518,-0.2519,0,0,0,0,0,0,0,0,0,0,0,-0.2327,-0.2328,-0.2367,-0.2369,-0.245,-0.2451,-0.2518,-0.2519,0,0,0,0,0,0,0,0,0,0,0,-0.2327,-0.2328,-0.2328,-0.237,-0.245,-0.2451,-0.2518,-0.2464,0,0,0,0,0,0,0,0,0,0,-0.2389,-0.2354,-0.2328,-0.2328,-0.237,-0.245,-0.2451,-0.2462,-0.2468,-0.2473,0,-0.2484,0,-0.251,-0.2523,-0.2523,0,0,0,-0.2364,-0.2349,-0.2381,-0.2328,-0.2371,-0.245,-0.2412,-0.2466,-0.2472,-0.248,-0.2485,-0.2488,-0.2512,-0.2524,-0.2524,-0.2616,-0.2617,0,0,-0.2359,-0.2334,-0.2376,-0.2384,-0.2389,-0.241,-0.2415,-0.247,-0.2469,-0.2485,-0.249,-0.2513,-0.2524,-0.2525,-0.2616,-0.2616,0,0,0,-0.235,-0.2331,-0.2361,-0.2381,-0.2403,-0.2412,-0.2418,-0.2466,-0.2479,-0.2491,-0.2513,-0.2524,-0.2525,-0.2615,-0.2616,-0.2638,0,0,0,-0.2347,-0.2327,-0.2359,-0.2344,-0.2402,-0.244,-0.2413,-0.2474,-0.2482,-0.2513,-0.2524,-0.2526,-0.2614,-0.2615,-0.2636,-0.2637,0,0,0,-0.2324,-0.2324,-0.2335,-0.2342,-0.2383,-0.244,-0.2455,-0.2477,-0.2496,-0.2523,-0.2526,-0.2614,-0.2615,-0.2635,-0.2635,-0.2632,0,0,0,-0.2294,-0.2319,-0.2334,-0.2376,-0.2382,-0.2466,-0.2455,-0.2511,-0.2539,-0.2525,-0.2614,-0.2616,-0.2634,-0.2633,-0.2631,-0.246,-0.2451,0,0,-0.2314,-0.2321,-0.2352,-0.2368,-0.2445,-0.2455,-0.2531,-0.2556,-0.2558,-0.2591,-0.2594,-0.2637,-0.2634,-0.2632,-0.2534,-0.2522,0,0,0,-0.2352,-0.2364,-0.2394,-0.244,-0.2501,-0.2547,-0.2581,-0.2594,-0.2626,-0.2582,-0.2657,-0.2655,-0.2652,-0.2547,-0.2539,-0.2622,-0.2622,-0.2621,-0.2621,-0.2313,-0.237,-0.2419,-0.2488,-0.2542,-0.2615,-0.2649,-0.267,-0.267,-0.2688,-0.2688,-0.2722,-0.2612,-0.2604,-0.271,-0.271,-0.2711,-0.2711,-0.2711,-0.2325,-0.2343,-0.2423,-0.2488,-0.2558,-0.2619,-0.2699,-0.2709,-0.2742,-0.2734,-0.273,-0.2595,-0.2595,-0.2713,-0.2712,-0.2712,-0.2712,-0.2712,-0.2712,-0.2274,-0.2288,-0.2345,-0.2429,-0.251,-0.2602,-0.2657,-0.2721,-0.2747,-0.2763,-0.2627,-0.2624,-0.2711,-0.2754,-0.2754,-0.2754,-0.2754,-0.2754,-0.2754,-0.2175,-0.2239,-0.2259,-0.2363,-0.2403,-0.2491,-0.2624,-0.2656,-0.2651,-0.2633,-0.2632,-0.2736,-0.2734,-0.2714,-0.2754,-0.2754,-0.2754,-0.2754,-0.2754,-0.2079,-0.2107,-0.2129,-0.2164,-0.2266,-0.226,-0.2441,-0.2456,-0.2513,-0.2465,-0.2552,-0.2557,-0.2525,-0.253,-0.2504,-0.2488,-0.2488,-0.2488,-0.2488,-0.1977,-0.2007,-0.1987,-0.2007,-0.2059,-0.214,-0.2054,-0.2085,-0.2192,-0.2193,-0.2206,-0.2152,-0.2169,-0.2116,-0.213,-0.2096,-0.1974,-0.1973,-0.1972,-0.1885,-0.1904,-0.1838,-0.1888,-0.194,-0.1954,-0.1774,-0.1647,-0.1735,-0.1955,-0.2146,-0.2448,-0.2402,-0.2415,-0.2362,-0.2373,-0.233,0,0]},{"header":{"parameterUnit":"m.s-1","parameterCategory":2,"la1":30.2992,"la2":30.254,"lo1":-89.0895,"lo2":-89.0443,"dy":0.0025,"dx":0.0025,"nx":19,"ny":19,"refTime":"2026-05-01T21:00:00:Z","depth":"2","parameterNumber":3,"parameterNumberName":"V-component_of_CURRENTS"},"data":[0,0,0,-0.031,-0.0309,-0.0241,-0.0241,-0.011,-0.0109,0,0,0,0,0,0,0,0,0,0,0,-0.0333,-0.0332,-0.031,-0.0309,-0.0242,-0.0241,-0.0111,-0.0109,0,0,0,0,0,0,0,0,0,0,0,-0.0333,-0.0332,-0.0332,-0.0309,-0.0242,-0.0241,-0.0111,-0.0169,0,0,0,0,0,0,0,0,0,0,-0.0239,-0.0275,-0.0332,-0.0332,-0.0309,-0.0242,-0.0241,-0.0172,-0.0166,-0.0134,0,-0.0133,0,-0.0124,-0.0101,-0.0101,0,0,0,-0.0294,-0.0281,-0.0262,-0.0332,-0.0308,-0.0242,-0.0268,-0.0169,-0.0161,-0.0125,-0.0131,-0.0127,-0.0122,-0.01,-0.01,-0.0031,-0.0031,0,0,-0.0297,-0.0315,-0.0268,-0.0258,-0.0302,-0.027,-0.0266,-0.0165,-0.016,-0.0131,-0.0124,-0.012,-0.0099,-0.0099,-0.0031,-0.0031,0,0,0,-0.0319,-0.0318,-0.0302,-0.0263,-0.0257,-0.0268,-0.0264,-0.0165,-0.016,-0.0122,-0.0118,-0.0099,-0.0097,-0.0031,-0.0031,-0.0126,0,0,0,-0.032,-0.0331,-0.0304,-0.0313,-0.026,-0.0217,-0.0266,-0.0167,-0.0155,-0.0119,-0.0099,-0.0096,-0.003,-0.0031,-0.0123,-0.0175,0,0,0,-0.0334,-0.0332,-0.0329,-0.0314,-0.0292,-0.0219,-0.0208,-0.0164,-0.0153,-0.0101,-0.0096,-0.003,-0.0031,-0.012,-0.0169,-0.0153,0,0,0,-0.0347,-0.0377,-0.0329,-0.0361,-0.0293,-0.0284,-0.0208,-0.0185,-0.0149,-0.0098,-0.003,-0.0031,-0.012,-0.0166,-0.0151,-0.0088,-0.0094,0,0,-0.04,-0.0383,-0.0405,-0.0361,-0.0387,-0.0291,-0.0294,-0.0212,-0.014,-0.0057,-0.0055,-0.0124,-0.0169,-0.0153,-0.0113,-0.0118,0,0,0,-0.0433,-0.0451,-0.0449,-0.0449,-0.0413,-0.0374,-0.0288,-0.0236,-0.0161,-0.0122,-0.0106,-0.0131,-0.0117,-0.0074,-0.0078,-0.0033,-0.0033,-0.0033,-0.0033,-0.0522,-0.0512,-0.0552,-0.0532,-0.0512,-0.0425,-0.038,-0.0286,-0.0214,-0.0192,-0.0195,-0.0232,-0.0188,-0.019,-0.0172,-0.0172,-0.0173,-0.0173,-0.0173,-0.0625,-0.0658,-0.0632,-0.0668,-0.0607,-0.0587,-0.0462,-0.0395,-0.0306,-0.0255,-0.0236,-0.0161,-0.02,-0.018,-0.0179,-0.0178,-0.0177,-0.0177,-0.0176,-0.0696,-0.0713,-0.0726,-0.0765,-0.076,-0.0683,-0.065,-0.0534,-0.0402,-0.0387,-0.0275,-0.0272,-0.028,-0.0359,-0.036,-0.036,-0.036,-0.036,-0.036,-0.0763,-0.0779,-0.084,-0.0865,-0.0888,-0.0873,-0.0751,-0.0668,-0.0487,-0.0371,-0.0369,-0.0293,-0.0287,-0.0288,-0.0363,-0.0362,-0.0362,-0.0362,-0.0362,-0.0859,-0.0854,-0.0956,-0.0995,-0.1045,-0.1044,-0.0923,-0.0696,-0.0573,-0.0462,-0.033,-0.0329,-0.0281,-0.0275,-0.0274,-0.0341,-0.0341,-0.0341,-0.0341,-0.091,-0.0921,-0.1048,-0.1129,-0.1183,-0.1124,-0.0994,-0.0719,-0.0447,-0.0302,-0.0304,-0.0264,-0.0265,-0.0212,-0.0208,-0.0204,-0.0253,-0.0253,-0.0253,-0.0967,-0.1003,-0.1097,-0.1175,-0.1244,-0.1191,-0.1027,-0.0662,-0.0288,-0.0253,-0.0321,-0.0329,-0.0272,-0.0273,-0.019,-0.0185,-0.0177,0,0]}],[{"header":{"parameterUnit":"m.s-1","parameterCategory":2,"la1":30.2992,"la2":30.254,"lo1":-89.0895,"lo2":-89.0443,"dy":0.0025,"dx":0.0025,"nx":19,"ny":19,"refTime":"2026-05-01T21:00:00:Z","depth":"4","parameterNumber":2,"parameterNumberName":"U-component_of_CURRENTS"},"data":[0,0,0,-0.1775,-0.1779,-0.195,-0.195,-0.2083,-0.2084,0,0,0,0,0,0,0,0,0,0,0,-0.1718,-0.1719,-0.1775,-0.1779,-0.195,-0.195,-0.2083,-0.2084,0,0,0,0,0,0,0,0,0,0,0,-0.1717,-0.1719,-0.172,-0.178,-0.1949,-0.195,-0.2083,-0.1976,0,0,0,0,0,0,0,0,0,0,-0.1821,-0.1783,-0.1718,-0.172,-0.1781,-0.1949,-0.195,-0.1972,-0.1983,-0.198,0,-0.2014,0,-0.2049,-0.2091,-0.2091,0,0,0,-0.1782,-0.1774,-0.1816,-0.1721,-0.1782,-0.1949,-0.1874,-0.1978,-0.1991,-0.1994,-0.2016,-0.2022,-0.2051,-0.2091,-0.2092,-0.2209,-0.221,0,0,-0.1773,-0.1751,-0.1808,-0.1824,-0.1834,-0.1868,-0.1879,-0.1987,-0.2002,-0.2016,-0.2025,-0.2053,-0.2092,-0.2093,-0.2209,-0.221,0,0,0,-0.1744,-0.1744,-0.1786,-0.1818,-0.1854,-0.1873,-0.1885,-0.1998,-0.2011,-0.2027,-0.2055,-0.2093,-0.2094,-0.2208,-0.2209,-0.2234,0,0,0,-0.1738,-0.1727,-0.1782,-0.1771,-0.1853,-0.1941,-0.1893,-0.2004,-0.2018,-0.2054,-0.2093,-0.2095,-0.2208,-0.2209,-0.2232,-0.2231,0,0,0,-0.1709,-0.1724,-0.1745,-0.1769,-0.1841,-0.194,-0.1961,-0.2008,-0.2034,-0.2091,-0.2095,-0.2207,-0.2209,-0.2231,-0.2228,-0.2229,0,0,0,-0.1677,-0.1714,-0.1745,-0.1804,-0.184,-0.1947,-0.1961,-0.2053,-0.2107,-0.2093,-0.2208,-0.2209,-0.223,-0.2227,-0.2228,-0.1943,0,0,0,-0.17,-0.1717,-0.1752,-0.1783,-0.1875,-0.1924,-0.2024,-0.21,-0.2121,-0.2165,-0.2169,-0.2233,-0.2228,-0.2229,-0.2022,0,0,0,0,-0.1744,-0.1766,-0.1802,-0.1868,-0.1947,-0.2025,-0.2104,-0.2135,-0.2206,-0.2159,-0.2252,-0.2249,-0.2248,-0.208,-0.2215,-0.2215,-0.2215,-0.2215,-0.2215,-0.1719,-0.1776,-0.1838,-0.1918,-0.1991,-0.2105,-0.2164,-0.2219,-0.2239,-0.2276,-0.2284,-0.2321,-0.2147,-0.2307,-0.2308,-0.2308,-0.2308,-0.2308,-0.2308,-0.1731,-0.1754,-0.1851,-0.1933,-0.2028,-0.212,-0.2224,-0.226,-0.2322,-0.2327,-0.2325,-0.2137,-0.2311,-0.231,-0.231,-0.231,-0.2309,-0.2309,-0.2309,-0.1681,-0.1698,-0.178,-0.1892,-0.2006,-0.2124,-0.2187,-0.2281,-0.2332,-0.2355,-0.2164,-0.2333,-0.2312,-0.2357,-0.2357,-0.2357,-0.2357,-0.2357,-0.2357,-0.1578,-0.1659,-0.171,-0.1844,-0.1911,-0.2016,-0.2169,-0.2195,-0.2278,-0.2155,-0.236,-0.2337,-0.2335,-0.2315,-0.2357,-0.2357,-0.2357,-0.2357,-0.2357,-0.148,-0.1533,-0.1584,-0.165,-0.1782,-0.1834,-0.2022,-0.2014,-0.2016,-0.1954,-0.204,-0.2055,-0.2013,-0.2019,-0.1985,-0.1932,-0.1928,-0.1925,0,-0.1388,-0.1425,-0.1461,-0.1507,-0.1547,-0.1704,-0.1644,-0.1716,-0.1785,-0.1721,-0.2017,-0.2114,-0.2122,-0.2077,-0.2077,-0.2037,0,0,0,-0.1311,-0.1338,-0.1315,-0.1389,-0.1421,-0.147,-0.1612,-0.1556,-0.179,-0.1705,-0.1836,-0.1859,-0.2173,-0.2358,-0.233,-0.2328,-0.2293,0,0]},{"header":{"parameterUnit":"m.s-1","parameterCategory":2,"la1":30.2992,"la2":30.254,"lo1":-89.0895,"lo2":-89.0443,"dy":0.0025,"dx":0.0025,"nx":19,"ny":19,"refTime":"2026-05-01T21:00:00:Z","depth":"4","parameterNumber":3,"parameterNumberName":"V-component_of_CURRENTS"},"data":[0,0,0,-0.0219,-0.0218,-0.0179,-0.0179,-0.008,-0.0079,0,0,0,0,0,0,0,0,0,0,0,-0.0232,-0.0232,-0.0219,-0.0218,-0.0179,-0.0179,-0.0081,-0.0079,0,0,0,0,0,0,0,0,0,0,0,-0.0232,-0.0232,-0.0232,-0.0218,-0.0179,-0.0179,-0.0081,-0.0119,0,0,0,0,0,0,0,0,0,0,-0.0162,-0.0188,-0.0232,-0.0232,-0.0218,-0.0179,-0.0179,-0.0121,-0.0117,-0.0089,0,-0.0092,0,-0.0088,-0.0073,-0.0073,0,0,0,-0.0205,-0.0193,-0.0181,-0.0232,-0.0218,-0.0179,-0.0193,-0.0119,-0.0114,-0.0082,-0.009,-0.0087,-0.0086,-0.0072,-0.0072,-0.0017,-0.0017,0,0,-0.0208,-0.022,-0.0185,-0.0179,-0.0218,-0.0194,-0.0192,-0.0116,-0.0114,-0.009,-0.0085,-0.0085,-0.0072,-0.0071,-0.0017,-0.0017,0,0,0,-0.0223,-0.0222,-0.0213,-0.0182,-0.0182,-0.0194,-0.0191,-0.0118,-0.0115,-0.0084,-0.0084,-0.0071,-0.007,-0.0017,-0.0017,-0.0098,0,0,0,-0.0223,-0.0231,-0.0214,-0.022,-0.0184,-0.0157,-0.0194,-0.012,-0.0112,-0.0084,-0.0071,-0.0069,-0.0017,-0.0017,-0.0095,-0.0142,0,0,0,-0.0231,-0.0232,-0.0231,-0.0221,-0.021,-0.0158,-0.0151,-0.0118,-0.0112,-0.0073,-0.0069,-0.0017,-0.0017,-0.0093,-0.0138,-0.0131,0,0,0,-0.0239,-0.0262,-0.0231,-0.0258,-0.0211,-0.0209,-0.0151,-0.0138,-0.0112,-0.0071,-0.0017,-0.0017,-0.0092,-0.0135,-0.0129,-0.0134,0,0,0,-0.0277,-0.0267,-0.0284,-0.0257,-0.0282,-0.0213,-0.0221,-0.016,-0.0102,-0.0035,-0.0034,-0.0096,-0.0137,-0.0131,-0.0151,0,0,0,0,-0.0303,-0.0318,-0.0319,-0.0326,-0.0304,-0.0283,-0.0219,-0.0179,-0.0122,-0.009,-0.0079,-0.0103,-0.0096,-0.0092,-0.0019,-0.0019,-0.0019,-0.0019,-0.0019,-0.0366,-0.0363,-0.0399,-0.0391,-0.0383,-0.0325,-0.0296,-0.0225,-0.0165,-0.0149,-0.0156,-0.0192,-0.019,-0.0133,-0.0134,-0.0134,-0.0134,-0.0135,-0.0135,-0.0441,-0.0468,-0.0463,-0.0498,-0.0465,-0.0458,-0.0368,-0.0317,-0.0251,-0.0206,-0.0194,-0.0163,-0.0142,-0.0141,-0.014,-0.0139,-0.0138,-0.0138,-0.0137,-0.0489,-0.0503,-0.0526,-0.0575,-0.0591,-0.0544,-0.0531,-0.0443,-0.0335,-0.0327,-0.0276,-0.0232,-0.0238,-0.0307,-0.0307,-0.0307,-0.0307,-0.0308,-0.0308,-0.0526,-0.055,-0.0613,-0.0655,-0.069,-0.0696,-0.0622,-0.0563,-0.0448,-0.037,-0.0343,-0.0249,-0.0243,-0.0245,-0.0311,-0.031,-0.031,-0.0309,-0.0309,-0.0582,-0.0593,-0.0688,-0.0739,-0.0811,-0.0808,-0.0753,-0.0605,-0.054,-0.0448,-0.0367,-0.0364,-0.0328,-0.032,-0.0323,-0.0414,-0.0414,-0.0415,0,-0.0611,-0.0627,-0.075,-0.0836,-0.0891,-0.0868,-0.0787,-0.0694,-0.0538,-0.0531,-0.0539,-0.0456,-0.0449,-0.0416,-0.0408,-0.0418,0,0,0,-0.0646,-0.0681,-0.0768,-0.0856,-0.0922,-0.082,-0.076,-0.0702,-0.0564,-0.0484,-0.0422,-0.042,-0.0401,-0.032,-0.0254,-0.0247,-0.0247,0,0]}]]